Regional Weather Roundup
Issued by NWS

Home | Current Version | Previous Version | Text Only | Print | Product List | Glossary On
Versions: 1 2 3 4 5 6 7 8 9 10 11 12 13 14 15 16 17 18 19 20 21 22 23 24 25 26 27 28 29 30 31 32 33 34 35 36 37 38 39 40 41 42 43 44 45 46 47 48 49 50
450
ASUS42 KTBW 070916
RWRFL
FLORIDA REGIONAL WEATHER ROUNDUP
NATIONAL WEATHER SERVICE TAMPA BAY RUSKIN FL
400 AM EST WED DEC 07 2016

NOTE: "FAIR" INDICATES FEW OR NO CLOUDS BELOW 12,000 FEET WITH NO
SIGNIFICANT WEATHER AND/OR OBSTRUCTIONS TO VISIBILITY.

FLZ001>010-012>015-112-114-115-071000-
PANHANDLE FLORIDA

CITY           SKY/WX    TMP DP  RH WIND       PRES   REMARKS
PENSACOLA      CLOUDY    56  51  84 N5        30.02R
CRESTVIEW      CLOUDY    56  50  80 N5        30.03R
DUKE FIELD     CLOUDY    55  50  84 N8        30.01R
VALPARAISO     MOCLDY    53  51  92 N5        30.02R
MARY ESTHER    MOCLDY    53  51  92 N5        30.01R
TRI COUNTY     CLOUDY    56  52  86 NW3       30.03R
PANAMA CITY    FAIR      53  52  96 CALM      30.01R
TYNDALL AFB    MOCLDY    56  53  88 N3        30.01R
APALACHICOLA   MOCLDY    55  54  96 CALM      30.00R

STATION/POSITION SKY/WX   TEMP    WIND        PRES    WAVE   SWELL
                          AIR SEA DIR/SP/G            HT/PER HT/PER
                          (F)     (DEG/KT/KT) (MB)    (FT/S) (FT/S)
30.1N   87.6W              57 69  340/  8/ 12 1016.6R   3/ 7   2/ 7
29.2N   88.2W              62 75  350/  6/ 10 1016.5
28.8N   86.0W              69 75              1016.3R   5/ 8   5/ 8
PANAMA CITY BEAC           54 67   10/  5/  7 1016.3R
TOWER C                    62     360/  6/  8 1016.8R
28.5N   84.5W              71 74  300/  8/ 12 1015.8R   5/ 8   5/ 8

$$
FLZ011-016>038-118-127-128-134-139-239-071000-
NORTH FLORIDA

CITY           SKY/WX    TMP DP  RH WIND       PRES   REMARKS
MARIANNA       CLOUDY    56  52  86 N8        30.00R
TALLAHASSEE    MOCLDY    56  54  93 NW3       29.99R
PERRY          CLOUDY    53  52  97 CALM      30.00S FOG
CROSS CITY     PTCLDY    52  52 100 CALM      30.00S
LAKE CITY      FAIR      52  52 100 CALM      30.00R
GAINESVILLE    PTCLDY    57  56  96 W5        29.99R
WILLISTON      FOG       61  61 100 CALM      30.00S VSB 0
PALATKA        FOG       55  55 100 W3        30.00R VSB 1/4
MAYPORT NAS    CLEAR     61  58  90 W6        29.98R
JACKSONVILLE   PTCLDY    56  56 100 W5        29.98R
JAX NAS        PTCLDY    60  58  92 W8        29.99R
FERNANDINA BEA FAIR      61  57  88 W3        29.97R
ST AUGUSTINE   CLEAR     59  57  93 W5        29.99R
PALM COAST     FAIR      58  58 100 MISG      29.99R

STATION/POSITION SKY/WX   TEMP    WIND        PRES    WAVE   SWELL
                          AIR SEA DIR/SP/G            HT/PER HT/PER
                          (F)     (DEG/KT/KT) (MB)    (FT/S) (FT/S)
SHELL POINT      NOT AVBL
KEATON BEACH               60     330/  2/  3 1015.7R
CEDAR KEY                  64     340/  3/  5 1016.3R
FERNANDINA                 60 68  260/  5/  6 1014.9R
30.7N   81.3W                 66                N/A     2/ 6
MAYPORT                    62 67  280/  3/  4 1015.0R
31.4N   80.9W              63 65  360/  6/  8 1014.0R   2/ 6   2/ 6
ST AUGUSTINE               60 67  280/  5/  6 1016.1R

$$
FLZ040-043>046-052-053-057-058-063-144-071000-
INTERIOR CENTRAL FLORIDA

CITY           SKY/WX    TMP DP  RH WIND       PRES   REMARKS
OCALA            N/A     55  54  94 CALM      30.00S VSB 1/2
THE VILLAGES     N/A     61  61 100 CALM      29.91R
LEESBURG       CLEAR     62  61  96 NW6       30.01R
SANFORD        CLEAR     63  61  93 NW8       29.99S
ORLANDO EXEC   CLOUDY    66  64  93 W9        30.00R
ORLANDO INTL   MOCLDY    65  63  93 W5        30.01R
KISSIMMEE      CLOUDY    66  65  96 NW6       30.01R
WINTER HAVEN   CLOUDY    64  63  96 NW3       30.01R
LAKELAND       FOG       59  59 100 CALM      30.01R VSB<1/4
BARTOW         FAIR      63 N/A N/A CALM      30.00S HAZE
OKEECHOBEE     MOCLDY    68  68 100 CALM      29.99S FOG

$$
FLZ041-047-054-059-064-141-147-071000-
EAST CENTRAL FLORIDA

CITY           SKY/WX    TMP DP  RH WIND       PRES   REMARKS
DAYTONA BEACH  PTCLDY    60  60 100 W7        29.99R
DELAND         CLEAR     63  61  94 W3        29.99R
CAPE CANAVERAL MOCLDY    66  64  94 W8        29.98R
PATRICK AFB    PTCLDY    68  67  96 NW10      29.98S
MELBOURNE      MOCLDY    66  66 100 NW7       29.99R FOG
VERO BEACH     FOG       65  65 100 CALM      29.99R VSB 1/2
FT PIERCE      CLOUDY    68  68 100 NW3       29.98R FOG
STUART         CLOUDY    73  72  94 W5        29.99R FOG

STATION/POSITION SKY/WX   TEMP    WIND        PRES    WAVE   SWELL
                          AIR SEA DIR/SP/G            HT/PER HT/PER
                          (F)     (DEG/KT/KT) (MB)    (FT/S) (FT/S)
TRIDENT PIER               67 73  300/  9/ 12 1015.3R
28.4N   80.5W                 72                N/A     1/12

$$
FLZ050-056-061-142-242-148-248-149-249-151-251-155-255-
160-260-071000-
WEST CENTRAL FLORIDA

CITY           SKY/WX    TMP DP  RH WIND       PRES   REMARKS
CRYSTAL RIVER  FAIR      63  61  94 CALM      30.00S
INVERNESS      FAIR      55  55 100 CALM      30.02R FOG
BROOKSVILLE      N/A    N/A N/A N/A MISG        N/A
CLEARWATER AIR MOCLDY    64  64 100 CALM      30.00R
ST PETE CLEARW MOCLDY    63  62  97 NW3       30.00R FOG
TAMPA INTL     PTCLDY    66  64  93 CALM      30.00R
TAMPA EXEC     FOG       61  59  94 CALM      30.01R VSB 3/4
PLANT CITY     FOG       64  64 100 CALM      30.02S VSB 3/4
MACDILL AFB    CLEAR     65  65 100 N5        30.00R
PETER O KNIGHT MOCLDY    68  68 100 CALM      30.01R FOG
ST PETERSBURG  CLEAR     68  66  93 N3        29.98R
SARASOTA       CLEAR     66  65  96 N3        29.98R
VENICE         FAIR      70  70 100 NW5       29.99R

STATION/POSITION SKY/WX   TEMP    WIND        PRES    WAVE   SWELL
                          AIR SEA DIR/SP/G            HT/PER HT/PER
                          (F)     (DEG/KT/KT) (MB)    (FT/S) (FT/S)
CLEARWATER BEACH           70 71  310/  9/ 10 1016.0R
MIDDLE TAMPA BAY           69     340/  4/  5 1016.1R
VENICE                     71 72  330/  9/ 10 1015.2R

$$
FLZ066-069-070-075>078-162-262-165-265-071000-
SOUTHWEST FLORIDA AND KEYS

CITY           SKY/WX    TMP DP  RH WIND       PRES   REMARKS
PUNTA GORDA    FOG       66  66 100 CALM      30.00S VSB 1/4
FT MYERS       MOCLDY    72  71  97 N5        29.97S FOG
SOUTHWEST INTL FOG       70  69  97 CALM      29.98R VSB 1/2
NAPLES         MOCLDY   N/A N/A N/A CALM      29.98R HAZE
MARCO ISLAND   CLOUDY    72  72 100 CALM      29.99R
MARATHON       CLOUDY    79  76  90 CALM      29.98S
KEY WEST NAS   MOCLDY    76  74  93 CALM      29.98R
KEY WEST INTL  MOCLDY    78  76  93 CALM      29.99R

STATION/POSITION SKY/WX   TEMP    WIND        PRES    WAVE   SWELL
                          AIR SEA DIR/SP/G            HT/PER HT/PER
                          (F)     (DEG/KT/KT) (MB)    (FT/S) (FT/S)
NAPLES                        74              1015.2R
26.0N   85.6W              74 77  340/  6/  8 1016.1R   4/ 8   3/ 8
DRY TORTUGAS               77      CALM  /  1 1015.3R
SAND KEY                   77     190/  3/  7 1015.8R
LONG KEY                   78 79  230/  8/  9 1015.6R
MOLASSES REEF              79 79  190/  9/  9 1015.4R

$$
FLZ067-068-071>074-168-172>174-071000-
SOUTHEAST FLORIDA

CITY           SKY/WX    TMP DP  RH WIND       PRES   REMARKS
W PALM BEACH   PTCLDY    70  69  97 W3        29.99R
FT LAUDER-EXEC PTCLDY    74  70  87 W6        29.98S
FT LAUDERDALE  PTCLDY    76  72  87 CALM      29.97S
POMPANO BEACH  CLEAR     74  71  91 W6        29.98S
PEMBROKE PINES CLOUDY    75  72  90 NW3       29.99S
OPA LOCKA      CLOUDY    77  74  90 CALM      29.98S
MIAMI          CLOUDY    76  74  93 W3        29.99R
WEST KENDALL   CLOUDY    75  74  96 SW5       29.99R
HOMESTEAD      CLOUDY    73  73 100 CALM      29.98S FOG

STATION/POSITION SKY/WX   TEMP    WIND        PRES    WAVE   SWELL
                          AIR SEA DIR/SP/G            HT/PER HT/PER
                          (F)     (DEG/KT/KT) (MB)    (FT/S) (FT/S)
PORT EVERGLADES            77     270/  4/  6 1014.9
VIRGINIA KEY               77 83  260/  3/  5 1015.7R
LAKE WORTH                 74 78  280/  5/  7 1014.9R
FOWEY ROCKS                77 78  270/  8/  8 1015.8R

$$





USA.gov is the U.S. government's official web portal to all federal, state and local government web resources and services.